CW3794 Weather Reports


Display with metric or nautical units.
time (UTC)temp
F
wind
direction
speed
MPH
gust
MPH
rain 1hr
in
rain 24hr
in
rain mn
in
humidity
%
barometer
mb
20181213080256 45 93 0.0 0.0 0.00 0.00 0.00 75 1021.4
20181213075315 46 92 0.0 0.0 0.00 0.00 0.00 75 1021.5
20181213073313 46 93 0.0 0.0 0.00 0.00 0.00 75 1021.6
20181213071333 46 25 0.0 4.0 0.00 0.00 0.00 75 1021.0
20181213070309 46 26 0.0 6.0 0.00 0.00 0.00 74 1021.0
20181213063309 47 244 0.0 0.0 0.00 0.00 0.00 73 1020.8
20181213062339 47 242 0.0 2.0 0.00 0.00 0.00 72 1020.6
20181213061303 48 243 0.0 0.0 0.00 0.00 0.00 71 1020.5
20181213060303 48 245 0.0 0.0 0.00 0.00 0.00 70 1020.3
20181213053233 50 241 0.0 0.0 0.00 0.00 0.00 68 1019.8
20181213045247 51 241 0.0 0.0 0.00 0.00 0.00 66 1019.5
20181213044230 52 244 0.0 0.0 0.00 0.00 0.00 65 1019.5
20181213043240 52 242 0.0 0.0 0.00 0.00 0.00 66 1019.3
20181213042257 52 241 0.0 0.0 0.00 0.00 0.00 65 1019.7
20181213040329 52 242 0.0 0.0 0.00 0.00 0.00 65 1019.4
20181213030320 53 241 0.0 0.0 0.00 0.00 0.00 62 1018.1
20181213024335 54 242 0.0 0.0 0.00 0.00 0.00 61 1018.1
20181213023306 54 243 0.0 0.0 0.00 0.00 0.00 61 1018.4
20181213021316 54 243 0.0 0.0 0.00 0.00 0.00 61 1017.9
20181213015323 54 241 0.0 0.0 0.00 0.00 0.00 58 1017.6
20181213012301 57 241 0.0 0.0 0.00 0.00 0.00 55 1017.6
20181213004324 60 244 0.0 0.0 0.00 0.00 0.00 49 1017.4
20181213000317 63 241 0.0 1.0 0.00 0.00 0.00 46 1016.9
20181212234323 63 242 0.0 4.0 0.00 0.00 0.00 47 1016.9
20181212232325 64 232 0.0 3.0 0.00 0.00 0.00 47 1016.8
20181212230315 65 243 0.0 9.0 0.00 0.00 0.00 44 1016.6
20181212224328 65 221 0.0 3.0 0.00 0.00 0.00 44 1016.6
20181212223347 65 232 0.0 1.0 0.00 0.00 0.00 42 1016.5
20181212221317 65 240 0.0 4.0 0.00 0.00 0.00 43 1016.6
20181212220303 65 231 0.0 2.0 0.00 0.00 0.00 43 1016.6
20181212214336 64 238 0.0 3.0 0.00 0.00 0.00 43 1016.7
20181212212315 65 230 0.0 2.0 0.00 0.00 0.00 43 1016.8
20181212205309 64 225 0.0 1.0 0.00 0.00 0.00 44 1016.9
20181212203347 64 221 0.0 2.0 0.00 0.00 0.00 44 1017.1
20181212202349 63 214 0.0 0.0 0.00 0.00 0.00 44 1017.1
20181212201340 63 214 0.0 2.0 0.00 0.00 0.00 45 1017.3
20181212200313 64 273 1.0 6.0 0.00 0.00 0.00 43 1017.5
20181212195320 65 155 0.0 1.0 0.00 0.00 0.00 44 1017.6
20181212194351 65 153 0.0 1.0 0.00 0.00 0.00 44 1017.8
20181212192351 63 150 0.0 1.0 0.00 0.00 0.00 47 1018.1
20181212191315 62 151 0.0 0.0 0.00 0.00 0.00 47 1018.2
20181212185353 63 159 0.0 1.0 0.00 0.00 0.00 47 1018.2
20181212184318 62 160 0.0 0.0 0.00 0.00 0.00 47 1018.9
20181212183330 62 160 0.0 0.0 0.00 0.00 0.00 48 1019.3
20181212182330 61 160 0.0 1.0 0.00 0.00 0.00 49 1019.4
20181212181324 59 160 0.0 0.0 0.00 0.00 0.00 50 1019.4
20181212180406 60 159 0.0 1.0 0.00 0.00 0.00 49 1019.7
20181212174436 59 153 0.0 1.0 0.00 0.00 0.00 52 1019.2
20181212173431 59 153 0.0 0.0 0.00 0.00 0.00 52 1019.1
20181212170422 56 149 0.0 0.0 0.00 0.00 0.00 59 1018.3
20181212165411 54 149 0.0 0.0 0.00 0.00 0.00 61 1018.5
20181212164429 54 149 0.0 4.0 0.00 0.00 0.00 60 1018.0
20181212163410 54 192 1.0 3.0 0.00 0.00 0.00 61 1017.8
20181212161419 52 304 0.0 0.0 0.00 0.00 0.00 64 1018.2
20181212154410 50 304 0.0 0.0 0.00 0.00 0.00 68 1018.2
20181212152414 47 304 0.0 3.0 0.00 0.00 0.00 74 1018.3
20181212151411 45 304 0.0 3.0 0.00 0.00 0.00 75 1018.0
20181212150429 44 304 0.0 3.0 0.00 0.00 0.00 75 1017.7
20181212145430 44 304 0.0 0.0 0.00 0.00 0.00 75 1017.6
20181212144430 44 304 0.0 0.0 0.00 0.00 0.00 75 1017.6
20181212143434 44 304 0.0 0.0 0.00 0.00 0.00 75 1017.6
20181212140407 43 307 0.0 0.0 0.00 0.00 0.00 75 1017.3
20181212131438 44 307 0.0 0.0 0.00 0.00 0.00 74 1016.8
20181212130423 44 306 0.0 0.0 0.00 0.00 0.00 74 1016.8
20181212125439 44 308 0.0 0.0 0.00 0.00 0.00 73 1016.8
20181212124432 45 305 0.0 1.0 0.00 0.00 0.00 73 1016.8
20181212123411 45 312 0.0 0.0 0.00 0.00 0.00 73 1016.7
20181212122419 45 309 0.0 2.0 0.00 0.00 0.00 73 1016.7
20181212121412 45 311 0.0 0.0 0.00 0.00 0.00 73 1016.8
20181212120424 45 309 0.0 0.0 0.00 0.00 0.00 73 1016.8
20181212112443 46 305 0.0 1.0 0.00 0.00 0.00 72 1016.9
20181212111417 46 306 0.0 0.0 0.00 0.00 0.00 72 1017.0
20181212110444 46 310 0.0 0.0 0.00 0.00 0.00 72 1017.1
20181212105410 46 305 0.0 1.0 0.00 0.00 0.00 72 1017.1
20181212104436 46 302 0.0 0.0 0.00 0.00 0.00 71 1017.0
20181212102445 46 307 0.0 1.0 0.00 0.00 0.00 71 1017.2
20181212101434 46 308 0.0 2.0 0.00 0.00 0.00 70 1017.2
20181212095420 47 310 0.0 0.0 0.00 0.00 0.00 70 1017.2
20181212094437 47 306 0.0 5.0 0.00 0.00 0.00 70 1017.2
20181212093415 47 305 0.0 0.0 0.00 0.00 0.00 69 1017.1
20181212091405 47 306 0.0 0.0 0.00 0.00 0.00 69 1017.0
20181212085402 48 303 0.0 0.0 0.00 0.00 0.00 68 1017.1
20181212081406 49 301 0.0 4.0 0.00 0.00 0.00 67 1017.0